Location: Barletta
(41.3170°N, 16.2830°E)
Time: 03:19:55
(UTC+02:00)

ISS - Pass Details

Date: 15 May 2021
Orbit: 417 x 422 km, 51.6° (Epoch: 14 June)

Event Time Altitude Azimuth Distance (km) Brightness Sun altitude
Rises 22:00:51 0° 242° (WSW) 2,352 0.2 -17.9°
Reaches altitude 10° 22:02:57 10° 246° (WSW) 1,493 -0.8 -18.1°
Maximum altitude 22:06:16 60° 327° (NNW) 485 -3.2 -18.5°
Drops below altitude 10° 22:09:36 10° 49° (NE) 1,503 -0.9 -19.0°
Sets 22:11:44 0° 53° (NE) 2,371 0.0 -19.2°
